Tributaries of Elbe river

river Ploučnice - water gauge Benešov nad Ploučnicí

Date and time (UTC) H (cm) Q (m³/s)
11. 8. 2022 09:50 70 2.7
11. 8. 2022 09:00 69 3
11. 8. 2022 08:00 68 2
11. 8. 2022 07:00 69 3
11. 8. 2022 06:00 69 3
11. 8. 2022 05:00 69 3
11. 8. 2022 04:00 69 3
11. 8. 2022 03:00 70 3
11. 8. 2022 02:00 70 3
11. 8. 2022 01:00 70 3
11. 8. 2022 00:00 70 3
10. 8. 2022 23:00 69 3
10. 8. 2022 22:00 69 3
10. 8. 2022 21:00 70 3

H - water level, Q - discharge

river Ohře - water gauge Louny

Date and time (UTC) H (cm) Q (m³/s)
11. 8. 2022 09:40 166 8.4
11. 8. 2022 09:00 166 8
11. 8. 2022 08:00 166 8
11. 8. 2022 07:00 166 8
11. 8. 2022 06:00 166 8
11. 8. 2022 05:00 166 8
11. 8. 2022 04:00 166 8
11. 8. 2022 03:00 165 8
11. 8. 2022 02:00 165 8
11. 8. 2022 01:00 165 8
11. 8. 2022 00:00 165 8
10. 8. 2022 23:00 166 8
10. 8. 2022 22:00 166 8
10. 8. 2022 21:00 167 9

H - water level, Q - discharge

Vraňany

Date and time (UTC) H (cm) Q (m³/s)
11. 8. 2022 09:50 92 151
11. 8. 2022 09:00 100 162
11. 8. 2022 08:00 101 163
11. 8. 2022 07:00 101 163
11. 8. 2022 06:00 101 163
11. 8. 2022 05:00 102 165
11. 8. 2022 04:00 101 163
11. 8. 2022 03:00 101 163
11. 8. 2022 02:00 101 163
11. 8. 2022 01:00 101 163
11. 8. 2022 00:00 101 163
10. 8. 2022 23:00 101 163
10. 8. 2022 22:00 101 163
10. 8. 2022 21:00 101 163

H - water level, Q - discharge

river Jizera - water gauge Předměřice

Date and time (UTC) H (cm) Q (m³/s)
11. 8. 2022 09:50 110 5
11. 8. 2022 09:00 107 4
11. 8. 2022 08:00 105 4
11. 8. 2022 07:00 102 3
11. 8. 2022 06:00 100 3
11. 8. 2022 05:00 101 3
11. 8. 2022 04:00 109 5
11. 8. 2022 03:00 115 6
11. 8. 2022 02:00 107 4
11. 8. 2022 01:00 100 3
11. 8. 2022 00:00 103 3
10. 8. 2022 23:00 112 6
10. 8. 2022 22:00 113 6
10. 8. 2022 21:00 113 6

H - water level, Q - discharge

river Cidlina - water gauge Sány

Date and time (UTC) H (cm) Q (m³/s)
11. 8. 2022 09:50 7 0.2
11. 8. 2022 09:00 7 0
11. 8. 2022 08:00 7 0
11. 8. 2022 07:00 7 0
11. 8. 2022 06:00 7 0
11. 8. 2022 05:00 7 0
11. 8. 2022 04:00 7 0
11. 8. 2022 03:00 7 0
11. 8. 2022 02:00 7 0
11. 8. 2022 01:00 7 0
11. 8. 2022 00:00 7 0
10. 8. 2022 23:00 7 0
10. 8. 2022 22:00 7 0
10. 8. 2022 21:00 8 0

H - water level, Q - discharge

river Orlice - water gauge Týniště nad Orlicí

Date and time (UTC) H (cm) Q (m³/s)
11. 8. 2022 09:40 40 3.5
11. 8. 2022 09:00 40 4
11. 8. 2022 08:00 40 4
11. 8. 2022 07:00 40 4
11. 8. 2022 06:00 40 4
11. 8. 2022 05:00 40 4
11. 8. 2022 04:00 39 3
11. 8. 2022 03:00 39 3
11. 8. 2022 02:00 38 3
11. 8. 2022 01:00 38 3
11. 8. 2022 00:00 39 3
10. 8. 2022 23:00 40 4
10. 8. 2022 22:00 43 4
10. 8. 2022 21:00 42 4

H - water level, Q - discharge
Source data
Labe Basin Vltava Basin Povodí Moravy ČHMÚ